Weather in Pezhma

Russia / Arkhangel'skaya Oblast'     60°59′04″N   41°48′12″E
temp.,
°C
wind,
m/s
gust,
m/s
humid.,
%
clouds,
%
prec.,
mm/h
press.,
hPa
HPBL,
m
19 april, mon
mon1900:00−1e29730 0.0 1035216
03:00−2e27771 0.0 1035195
06:00−1e27730 0.0 1035236
09:00+4e45444 0.0 10361069
12:00+7ese453216 0.0 10351460
15:00+8ese34325 0.0 10341636
18:00+7ese35424 0.0 1033467
21:00+2ese22620 0.0 103439
20 april, tue
tue2000:000se22720 0.0 103432
03:00−1sse22770 0.0 103425
06:000se14730 0.0 1034139
09:00+5se35400 0.0 1033911
12:00+8se45310 0.0 10311357
15:00+10se46300 0.0 10291485
18:00+8se37380 0.0 1027676
21:00+3ese310620 0.0 1027200
21 april, wed
wed2100:00+1ese311729 0.0 1025237
03:000ese31274100 0.0 1024341
06:00+1ese51566100 0.0 1020567
09:00+5ese61548100 0.0 1016899
12:00+5ese71560100 0.3 10131169
15:00+2ese61493100 2.1 10111026
18:00+2se51396100 0.6 1008956
21:00+1se61497100 2.3 1007981
22 april, thu
thu2200:00+3sse61397100 0.5 10051163
03:00+2ssw71296100 0.9 1007960
06:00+2s51190100 0.0 1009984
09:00+3s5118999 0.1 1010885
12:00+5s6118480 0.1 10101166
15:00+5ssw61393100 0.4 10111117
18:00+5ssw51388100 1.1 10121374
21:00+4sw41287100 1.5 1014992
23 april, fri
fri2300:00+3ssw3109780 0.0 1015354
03:00+2s279842 0.0 1016156
06:00+3s28955 0.0 1016221
09:00+9sse47765 0.0 1016517
12:00+13s586582 0.1 10151333
15:00+14s586363 0.5 10141465
18:00+13sse597123 0.4 1014992
21:00+10sse4148242 0.4 1014587